Weather History for KPUB - April, 2014

Change the Weather History Date:

Friday, April 11, 2014

  Actual Average Record
Temperature  
Mean Temperature 60 °F 49 °F  
Max Temperature 81 °F 66 °F 88 °F (1982)
Min Temperature 38 °F 32 °F 11 °F (1995)
Degree Days  
Heating Degree Days 5 16  
Month to date heating degree days 168 191  
Since 1 July heating degree days 5045 5196  
Cooling Degree Days 0 0  
Month to date cooling degree days 0 0  
Year to date cooling degree days 0 0  
Growing Degree Days 9 (Base 50)    
Moisture  
Dew Point 26 °F    
Average Humidity 44    
Maximum Humidity 79    
Minimum Humidity 9    
Precipitation  
Precipitation 0.00 in 0.05 in 0.82 in (1901)
Month to date precipitation 0.60 0.42  
Year to date precipitation 2.09 2.00  
Snow  
Snow 0.00 in 0.10 in 4.20 in (1952)
Month to date snowfall 3.1 1.7  
Since 1 July snowfall 24.1 29.2  
Snow Depth 0.00 in    
Sea Level Pressure  
Sea Level Pressure 29.82 in    
Wind  
Wind Speed 7 mph (SW)    
Max Wind Speed 21 mph    
Max Gust Speed 26 mph    
Visibility 10 miles    
Events      
T = Trace of Precipitation, MM = Missing Value Source: NWS Daily Summary

Daily Weather History Graph

Daily Weather History Graph

Search for Another Location

Airport or City:

Trip Planner

Search our weather history database for the weather conditions in past years. The results will help you decide how hot, cold, wet, or windy it might be!

Date:

Astronomy

Apr. 11, 2014 Rise Set
Actual Time 6:27 AM MDT 7:30 PM MDT
Civil Twilight 6:00 AM MDT 7:57 PM MDT
Nautical Twilight 5:28 AM MDT 8:30 PM MDT
Astronomical Twilight 4:55 AM MDT 9:03 PM MDT
Moon 4:16 PM MDT (4/11) 4:21 AM MDT (4/11)
Length of Visible Light 13h 56m
Length of Day
13h 02m
Waxing Gibbous, 87% of the Moon is Illuminated
Apr 11
Waxing Gibbous
Apr 15
Full
Apr 22
Last Quarter
Apr 29
New
May 6
First Quarter

Hourly Weather History & Observations

Time (MDT) Temp. Windchill Dew Point Humidity Pressure Visibility Wind Dir Wind Speed Gust Speed Precip Events Conditions
12:53 AM 48.9 °F - 34.0 °F 56% 29.97 in 10.0 mi NNE 8.1 mph - N/A   Clear
1:53 AM 46.9 °F - 35.1 °F 63% 29.96 in 10.0 mi NNE 8.1 mph - N/A   Clear
2:53 AM 46.0 °F 41.4 °F 34.0 °F 63% 29.94 in 10.0 mi North 9.2 mph - N/A   Clear
3:53 AM 43.0 °F 39.5 °F 34.0 °F 71% 29.95 in 10.0 mi West 5.8 mph - N/A   Clear
4:53 AM 41.0 °F 37.1 °F 32.0 °F 70% 29.95 in 10.0 mi NW 5.8 mph - N/A   Clear
5:53 AM 39.9 °F 36.7 °F 33.1 °F 77% 29.96 in 10.0 mi WSW 4.6 mph - N/A   Clear
6:53 AM 39.0 °F 35.7 °F 32.0 °F 76% 29.98 in 10.0 mi West 4.6 mph - N/A   Clear
7:53 AM 46.0 °F - 34.0 °F 63% 29.97 in 10.0 mi Calm Calm - N/A   Clear
8:53 AM 52.0 °F - 34.0 °F 50% 29.96 in 10.0 mi Calm Calm - N/A   Clear
9:53 AM 55.9 °F - 34.0 °F 44% 29.95 in 10.0 mi Variable 3.5 mph - N/A   Clear
10:53 AM 61.0 °F - 32.0 °F 34% 29.93 in 10.0 mi Variable 4.6 mph - N/A   Clear
11:53 AM 68.0 °F - 30.0 °F 24% 29.89 in 10.0 mi ESE 8.1 mph - N/A   Clear
12:53 PM 73.0 °F - 25.0 °F 17% 29.84 in 10.0 mi South 8.1 mph - N/A   Clear
1:53 PM 77.0 °F - 18.0 °F 11% 29.78 in 10.0 mi South 6.9 mph - N/A   Clear
2:53 PM 79.0 °F - 15.1 °F 9% 29.73 in 10.0 mi Variable 3.5 mph 19.6 mph N/A   Clear
3:53 PM 80.1 °F - 18.0 °F 10% 29.70 in 10.0 mi South 10.4 mph - N/A   Clear
4:53 PM 81.0 °F - 18.0 °F 10% 29.68 in 10.0 mi SSE 17.3 mph 20.7 mph N/A   Clear
5:53 PM 80.1 °F - 15.1 °F 9% 29.67 in 10.0 mi SSE 6.9 mph - N/A   Clear
6:53 PM 75.9 °F - 18.0 °F 11% 29.67 in 10.0 mi ESE 10.4 mph - N/A   Clear
7:53 PM 70.0 °F - 21.9 °F 16% 29.67 in 10.0 mi ENE 4.6 mph - N/A   Clear
8:53 PM 71.1 °F - 19.0 °F 14% 29.66 in 10.0 mi NW 8.1 mph - N/A   Clear
9:53 PM 71.1 °F - 19.0 °F 14% 29.65 in 10.0 mi SSW 8.1 mph - N/A   Partly Cloudy
10:53 PM 64.0 °F - 21.0 °F 19% 29.64 in 10.0 mi WNW 12.7 mph - N/A   Clear
11:53 PM 60.1 °F - 21.0 °F 22% 29.65 in 10.0 mi West 4.6 mph - N/A   Clear